Location: Unspecified
(51.6250°N, 0.8230°E)
Time: 11:28:04
(UTC+00:00)

ISS - Pass Details

Date: 28 January 2021
Orbit: 417 x 422 km, 51.6° (Epoch: 06 March)

Event Time Altitude Azimuth Distance (km) Brightness Sun altitude
Rises 17:46:08 0° 265° (W) 2,372 2.0 -10.5°
Reaches altitude 10° 17:48:14 10° 265° (W) 1,509 0.6 -10.8°
Maximum altitude 17:51:37 89° 6° (N) 428 -3.8 -11.3°
Enters shadow 17:53:57 19° 86° (E) 1,085 -2.3 -11.6°
